Regional Weather Roundup
Issued by NWS

Home | Current Version | Previous Version | Text Only | Print | Product List | Glossary Off
Versions: 1 2 3 4 5 6 7 8 9 10 11 12 13 14 15 16 17 18 19 20 21 22 23 24 25 26 27 28 29 30 31 32 33 34 35 36 37 38 39 40 41 42 43 44 45 46 47 48 49 50

000
ASUS43 KOAX 311510
RWRNE

WEATHER ROUNDUP FOR NEBRASKA
NATIONAL WEATHER SERVICE OMAHA NE
1000 AM CDT MON AUG 31 2015

NOTES: SATELLITE DATA IS BEING USED TO AUGMENT CLOUD COVER ABOVE
       12000 FEET.
       "FAIR" INDICATES FEW OR NO CLOUDS BELOW 12,000 FEET WITH NO
       SIGNIFICANT WEATHER AND/OR OBSTRUCTIONS TO VISIBILITY.

  * THESE STATIONS DO NOT REPORT WEATHER SUCH AS RAIN...SNOW OR FOG.

NEZ001>004-019>022-054>056-311600-
NEBRASKA PANHANDLE

CITY           SKY/WX    TMP DP  RH WIND       PRES   REMARKS
SCOTTSBLUFF    CLOUDY    73  56  54 NW8       29.98R
ALLIANCE       PTSUNNY   77  54  44 W6        29.99R
CHADRON        LGT RAIN  76  53  44 W9        29.94R
KIMBALL        CLOUDY    73  51  46 W10       30.04S
SIDNEY         PTSUNNY   75  52  44 N10       30.02S
$$

NEZ057>060-069>072-079>082-311600-
SOUTHWEST NEBRASKA

CITY           SKY/WX    TMP DP  RH WIND       PRES   REMARKS
NORTH PLATTE   SUNNY     71  59  65 S8        29.94F
IMPERIAL       SUNNY     71  52  50 SW3       29.96S
LEXINGTON      SUNNY     73  65  78 S9        29.94S
MCCOOK         SUNNY     71  59  65 S5        29.95R
OGALLALA       SUNNY     67  52  58 CALM      29.96S
$$

NEZ005>010-023>029-035>040-094-311600-
NORTH CENTRAL NEBRASKA

CITY           SKY/WX    TMP DP  RH WIND       PRES   REMARKS
VALENTINE      MOSUNNY   78  51  38 SW10      29.88R
AINSWORTH      MOSUNNY   74  56  52 SW13      29.90S
BROKEN BOW     SUNNY     70  63  78 SW8       29.94R
O`NEILL        SUNNY     72  66  80 S10       29.90S
ORD            SUNNY     70  64  81 S12       29.92R
THEDFORD       MOSUNNY   76  55  48 SW12      29.95S
$$

NEZ041-046>049-061>064-073>077-083>087-311600-
SOUTH CENTRAL NEBRASKA

CITY           SKY/WX    TMP DP  RH WIND       PRES   REMARKS
GRAND ISLAND   SUNNY     70  65  84 S13       29.96R
AURORA         MOSUNNY   71  70  98 S9        29.96R
HASTINGS       CLOUDY    67  65  93 S9        29.96R FOG
HEBRON         CLOUDY    71  70  95 S13       29.98R FOG
HOLDREGE       SUNNY     70  64  83 S8        29.95S
KEARNEY *      SUNNY     68  64  88 S13       29.94S
YORK           PTSUNNY   70  68  94 S9        29.97R FOG
$$

NEZ011>018-030>034-042>045-311600-
NORTHEAST NEBRASKA

CITY           SKY/WX    TMP DP  RH WIND       PRES   REMARKS
NORFOLK        SUNNY     72  67  84 S9        29.93S
ALBION         MOSUNNY   69  66  92 S10       29.93S FOG
BLAIR          SUNNY     71  69  94 S9        29.97S
COLUMBUS *     SUNNY     72  64  78 S8        29.95R
FREMONT        SUNNY     74  69  83 S7        29.96S
TEKAMAH        MOSUNNY   71  70  96 S7        29.95S FOG
WAYNE          SUNNY     71  68  89 S12       29.94R
$$

NEZ050>053-065>068-078-088>093-311600-
SOUTHEAST NEBRASKA

CITY           SKY/WX    TMP DP  RH WIND       PRES   REMARKS
LINCOLN        MOSUNNY   74  69  85 S10       29.97S
OMAHA EPPLEY   MOSUNNY   74  69  85 SE9       29.96S
BEATRICE       MOSUNNY   74  70  87 S9        29.98R
FALLS CITY     SUNNY     76  71  85 S7        29.98R
NEBRASKA CITY  SUNNY     72  72 100 S7        29.99R
PLATTSMOUTH    SUNNY     72  70  95 SE3       29.98S
$$

NEZ044-045-051>053-067-311600-
OMAHA AREA

CITY           SKY/WX    TMP DP  RH WIND       PRES   REMARKS
OMAHA EPPLEY   MOSUNNY   74  69  85 SE9       29.96S
BLAIR          SUNNY     71  69  94 S9        29.97S
FREMONT        SUNNY     74  69  83 S7        29.96S
MILLARD        SUNNY     73  70  90 S5        29.96S
OFFUTT AFB     PTSUNNY   71  71 100 SE5       29.97R
PLATTSMOUTH    SUNNY     72  70  95 SE3       29.98S
WAHOO          FAIR      72  71  95 S6        29.96S
$$



USA.gov is the U.S. government's official web portal to all federal, state and local government web resources and services.